EN

Hourly Weather Pavlo-Hryhorivka

Today, 19 April, Monday

Time Temperature Precipitation Wind Pressure Humidity
00:00 +9°C° 0 mm 2 mps 750 mmHg 73%
01:00 +8°C° 0 mm 2 mps 750 mmHg 76%
02:00 +8°C° 0 mm 2 mps 750 mmHg 78%
03:00 +8°C° 0 mm 2 mps 749 mmHg 81%
04:00 +7°C° 0 mm 2 mps 749 mmHg 85%
05:00 +7°C° 0 mm 2 mps 749 mmHg 89%
06:00 +7°C° 0 mm 2 mps 749 mmHg 84%
07:00 +8°C° 0 mm 2 mps 749 mmHg 80%
08:00 +9°C° 0 mm 2 mps 749 mmHg 75%
09:00 +10°C° 0 mm 2 mps 749 mmHg 71%
10:00 +12°C° 0 mm 2 mps 749 mmHg 66%
11:00 +12°C° 0 mm 2 mps 749 mmHg 61%
12:00 +13°C° 0 mm 2 mps 749 mmHg 58%
13:00 +14°C° 0 mm 2 mps 749 mmHg 55%
14:00 +14°C° 0 mm 2 mps 748 mmHg 51%
15:00 +14°C° 0 mm 2 mps 748 mmHg 53%
16:00 +14°C° 0 mm 2 mps 748 mmHg 54%
17:00 +13°C° 0 mm 2 mps 748 mmHg 55%
18:00 +13°C° 0 mm 2 mps 748 mmHg 59%
19:00 +12°C° 0 mm 2 mps 748 mmHg 62%
20:00 +10°C° 0 mm 2 mps 748 mmHg 66%
21:00 +9°C° 0 mm 2 mps 747 mmHg 69%
22:00 +9°C° 0 mm 2 mps 747 mmHg 72%
23:00 +8°C° 0 mm 2 mps 747 mmHg 75%

Tomorrow, 20 April, Tuesday

Time Temperature Precipitation Wind Pressure Humidity
00:00 +8°C° 0 mm 2 mps 746 mmHg 77%
01:00 +8°C° 0 mm 2 mps 746 mmHg 79%
02:00 +8°C° 0 mm 2 mps 745 mmHg 81%
03:00 +8°C° 0 mm 3 mps 745 mmHg 81%
04:00 +7°C° 0 mm 3 mps 744 mmHg 82%
05:00 +7°C° 0 mm 3 mps 744 mmHg 82%
06:00 +8°C° 0 mm 3 mps 744 mmHg 80%
07:00 +9°C° 0 mm 3 mps 743 mmHg 78%
08:00 +9°C° 0 mm 3 mps 743 mmHg 76%
09:00 +8°C° 0.2 mm 4 mps 743 mmHg 77%
10:00 +10°C° 0.2 mm 4 mps 742 mmHg 77%
11:00 +9°C° 0.2 mm 5 mps 742 mmHg 78%
12:00 +9°C° 0.2 mm 5 mps 742 mmHg 77%
13:00 +9°C° 0.2 mm 6 mps 741 mmHg 75%
14:00 +10°C° 0.2 mm 6 mps 741 mmHg 74%
15:00 +10°C° 0.1 mm 6 mps 741 mmHg 75%
16:00 +9°C° 0.1 mm 6 mps 741 mmHg 75%
17:00 +9°C° 0.1 mm 6 mps 741 mmHg 76%
18:00 +9°C° 0.1 mm 5 mps 742 mmHg 77%
19:00 +8°C° 0.1 mm 4 mps 742 mmHg 79%
20:00 +8°C° 0.1 mm 4 mps 743 mmHg 80%
21:00 +7°C° 0 mm 4 mps 743 mmHg 81%
22:00 +7°C° 0 mm 4 mps 744 mmHg 82%
23:00 +6°C° 0 mm 4 mps 744 mmHg 82%

Day after tomorrow, 21 April, Wednesday

Time Temperature Precipitation Wind Pressure Humidity
00:00 +6°C° 0 mm 4 mps 744 mmHg 83%
01:00 +5°C° 0 mm 4 mps 744 mmHg 83%
02:00 +5°C° 0 mm 4 mps 745 mmHg 83%
03:00 +5°C° 0 mm 4 mps 745 mmHg 85%
04:00 +4°C° 0 mm 4 mps 746 mmHg 87%
05:00 +4°C° 0 mm 3 mps 746 mmHg 89%
06:00 +6°C° 0 mm 4 mps 746 mmHg 81%
07:00 +7°C° 0 mm 4 mps 747 mmHg 73%
08:00 +10°C° 0 mm 4 mps 747 mmHg 65%
09:00 +11°C° 0 mm 4 mps 748 mmHg 60%
10:00 +12°C° 0 mm 4 mps 748 mmHg 54%
11:00 +13°C° 0 mm 4 mps 748 mmHg 48%
12:00 +14°C° 0 mm 4 mps 748 mmHg 45%
13:00 +15°C° 0 mm 4 mps 748 mmHg 43%
14:00 +15°C° 0 mm 4 mps 748 mmHg 40%
15:00 +15°C° 0 mm 4 mps 748 mmHg 44%
16:00 +14°C° 0 mm 4 mps 749 mmHg 48%
17:00 +14°C° 0 mm 4 mps 749 mmHg 52%
18:00 +13°C° 0.2 mm 3 mps 749 mmHg 60%
19:00 +11°C° 0.2 mm 3 mps 750 mmHg 68%
20:00 +10°C° 0.2 mm 3 mps 750 mmHg 76%
21:00 +9°C° 0.1 mm 3 mps 750 mmHg 78%
22:00 +9°C° 0.1 mm 3 mps 750 mmHg 80%
23:00 +9°C° 0.1 mm 3 mps 750 mmHg 83%

22 April, Thursday

Time Temperature Precipitation Wind Pressure Humidity
00:00 +8°C° 0 mm 3 mps 750 mmHg 85%
01:00 +8°C° 0 mm 3 mps 750 mmHg 87%
02:00 +8°C° 0 mm 3 mps 750 mmHg 90%
03:00 +7°C° 0 mm 3 mps 751 mmHg 91%
04:00 +7°C° 0 mm 3 mps 751 mmHg 92%
05:00 +5°C° 0 mm 3 mps 751 mmHg 93%
06:00 +8°C° 0 mm 3 mps 751 mmHg 86%
07:00 +9°C° 0 mm 3 mps 752 mmHg 78%
08:00 +11°C° 0 mm 3 mps 752 mmHg 70%
09:00 +12°C° 0 mm 3 mps 752 mmHg 65%
10:00 +14°C° 0 mm 3 mps 752 mmHg 59%
11:00 +16°C° 0 mm 3 mps 752 mmHg 54%
12:00 +16°C° 0.1 mm 3 mps 752 mmHg 51%
13:00 +16°C° 0.1 mm 3 mps 752 mmHg 49%
14:00 +17°C° 0.1 mm 3 mps 752 mmHg 47%
15:00 +16°C° 0 mm 3 mps 752 mmHg 51%
16:00 +16°C° 0 mm 2 mps 752 mmHg 56%
17:00 +15°C° 0 mm 2 mps 752 mmHg 60%
18:00 +14°C° 0 mm 3 mps 752 mmHg 62%
19:00 +13°C° 0 mm 3 mps 752 mmHg 64%
20:00 +12°C° 0 mm 3 mps 752 mmHg 66%
21:00 +12°C° 0 mm 3 mps 752 mmHg 68%
22:00 +11°C° 0 mm 3 mps 752 mmHg 70%
23:00 +10°C° 0 mm 3 mps 752 mmHg 72%

23 April, Friday

Time Temperature Precipitation Wind Pressure Humidity
00:00 +10°C° 0 mm 3 mps 752 mmHg 73%
01:00 +10°C° 0 mm 3 mps 752 mmHg 74%
02:00 +9°C° 0 mm 3 mps 752 mmHg 75%
03:00 +9°C° 0 mm 3 mps 752 mmHg 78%
04:00 +7°C° 0 mm 4 mps 752 mmHg 80%
05:00 +7°C° 0 mm 4 mps 752 mmHg 83%
06:00 +8°C° 0 mm 4 mps 752 mmHg 76%
07:00 +10°C° 0 mm 5 mps 752 mmHg 70%
08:00 +13°C° 0 mm 6 mps 752 mmHg 63%
09:00 +14°C° 0 mm 6 mps 752 mmHg 57%
10:00 +16°C° 0 mm 6 mps 752 mmHg 52%
11:00 +17°C° 0 mm 7 mps 752 mmHg 46%
12:00 +17°C° 0 mm 7 mps 752 mmHg 44%
13:00 +18°C° 0 mm 7 mps 751 mmHg 41%
14:00 +18°C° 0 mm 7 mps 751 mmHg 39%
15:00 +19°C° 0 mm 6 mps 750 mmHg 44%
16:00 +17°C° 0 mm 6 mps 750 mmHg 49%
17:00 +16°C° 0 mm 6 mps 750 mmHg 54%
18:00 +15°C° 0 mm 5 mps 750 mmHg 59%
19:00 +13°C° 0 mm 5 mps 750 mmHg 64%
20:00 +12°C° 0 mm 5 mps 750 mmHg 68%
21:00 +12°C° 0 mm 5 mps 750 mmHg 70%
22:00 +11°C° 0 mm 4 mps 750 mmHg 71%
23:00 +10°C° 0 mm 4 mps 750 mmHg 72%

24 April, Saturday

Time Temperature Precipitation Wind Pressure Humidity
00:00 +10°C° 0 mm 4 mps 750 mmHg 76%
01:00 +9°C° 0 mm 3 mps 750 mmHg 80%
02:00 +8°C° 0 mm 3 mps 750 mmHg 83%
03:00 +7°C° 0.2 mm 4 mps 750 mmHg 85%
04:00 +6°C° 0.2 mm 4 mps 750 mmHg 86%
05:00 +6°C° 0.2 mm 5 mps 750 mmHg 88%
06:00 +6°C° 0.3 mm 5 mps 750 mmHg 85%
07:00 +6°C° 0.3 mm 5 mps 751 mmHg 83%
08:00 +6°C° 0.3 mm 4 mps 751 mmHg 80%
09:00 +7°C° 0 mm 4 mps 751 mmHg 73%
10:00 +10°C° 0 mm 4 mps 751 mmHg 65%
11:00 +11°C° 0 mm 3 mps 751 mmHg 58%
12:00 +12°C° 0 mm 3 mps 751 mmHg 54%
13:00 +12°C° 0 mm 3 mps 751 mmHg 50%
14:00 +14°C° 0 mm 2 mps 751 mmHg 46%
15:00 +14°C° 0 mm 2 mps 751 mmHg 46%
16:00 +14°C° 0 mm 2 mps 750 mmHg 46%
17:00 +14°C° 0 mm 2 mps 750 mmHg 46%
18:00 +13°C° 0 mm 2 mps 750 mmHg 51%
19:00 +10°C° 0 mm 2 mps 750 mmHg 56%
20:00 +9°C° 0 mm 2 mps 750 mmHg 61%
21:00 +9°C° 0 mm 2 mps 750 mmHg 63%
22:00 +9°C° 0 mm 2 mps 750 mmHg 65%
23:00 +8°C° 0 mm 2 mps 750 mmHg 67%
Show more

We Need Your Consent

Meteoprog and our Service Providers may store and access personal data such as cookies, device identifiers or other similar technologies on your device and process such data to personalise content and ads, as well as provide social media features and to analyse the traffic.

  • Store and/or access information on your device

    Cookies, device identifiers or other information can be stored or accessed on your device for the purposes indicated above.

  • Personalised ads and content, ad and content measurement, audience insights, and products development

    Ads and content can be personalised based on a profile. More data can be added to better personalise ads and content. Ad and content performance can be measured. Insights about the audience who saw the ads and content can be derived. Such data can be used to develop or improve user’s experience, systems and software.

By clicking ‘I Agree’ you will allow the use of indicated cookies, device identifiers, web beacons or other similar technologies. Your settings can be changed in the browser on your device.

For certain purposes, legitimate interests may be relied on, rather than consent. You can read more about this in our Privacy and Cookie Policy.